owner,sensor,date,latitude,longitude,vertical_datum,mass_concentration_of_oxygen_in_sea_water,qcFlag 
SCCF RECON,ioos:station:SCCF:18:1,2017-01-01T00:00:00Z,26.6955,-81.8138,1.6,8.57,1111122 
SCCF RECON,ioos:station:SCCF:18:1,2017-01-01T01:00:00Z,26.6955,-81.8138,1.59,8.73,1111122 
SCCF RECON,ioos:station:SCCF:18:1,2017-01-01T02:00:00Z,26.6955,-81.8138,1.54,8.4,1111122 
SCCF RECON,ioos:station:SCCF:18:1,2017-01-01T03:00:00Z,26.6955,-81.8138,1.48,8.34,1111122 
SCCF RECON,ioos:station:SCCF:18:1,2017-01-01T04:00:00Z,26.6955,-81.8138,1.45,8.11,1111122 
SCCF RECON,ioos:station:SCCF:18:1,2017-01-01T05:00:00Z,26.6955,-81.8138,1.441,8.05,1111122 
SCCF RECON,ioos:station:SCCF:18:1,2017-01-01T06:00:00Z,26.6955,-81.8138,1.51,8.47,1111122 
SCCF RECON,ioos:station:SCCF:18:1,2017-01-01T07:00:00Z,26.6955,-81.8138,1.59,8.26,1111122 
SCCF RECON,ioos:station:SCCF:18:1,2017-01-01T08:00:00Z,26.6955,-81.8138,1.66,8.13,1111122 
SCCF RECON,ioos:station:SCCF:18:1,2017-01-01T09:00:00Z,26.6955,-81.8138,1.698,8.24,1111122 
SCCF RECON,ioos:station:SCCF:18:1,2017-01-01T10:00:00Z,26.6955,-81.8138,1.73,8.1,1111122 
SCCF RECON,ioos:station:SCCF:18:1,2017-01-01T11:00:00Z,26.6955,-81.8138,1.73,8.08,1111122 
SCCF RECON,ioos:station:SCCF:18:1,2017-01-01T12:00:00Z,26.6955,-81.8138,1.66,7.99,1111122 
SCCF RECON,ioos:station:SCCF:18:1,2017-01-01T13:00:00Z,26.6955,-81.8138,1.59,7.96,1111122 
SCCF RECON,ioos:station:SCCF:18:1,2017-01-01T14:00:00Z,26.6955,-81.8138,1.532,7.89,1111122 
SCCF RECON,ioos:station:SCCF:18:1,2017-01-01T15:00:00Z,26.6955,-81.8138,1.497,8.03,1111122 
SCCF RECON,ioos:station:SCCF:18:1,2017-01-01T16:00:00Z,26.6955,-81.8138,1.45,8.0,1111122 
SCCF RECON,ioos:station:SCCF:18:1,2017-01-01T17:00:00Z,26.6955,-81.8138,1.39,8.06,1111122 
SCCF RECON,ioos:station:SCCF:18:1,2017-01-01T18:00:00Z,26.6955,-81.8138,1.35,8.13,1111122 
SCCF RECON,ioos:station:SCCF:18:1,2017-01-01T19:00:00Z,26.6955,-81.8138,1.405,8.28,1111122 
SCCF RECON,ioos:station:SCCF:18:1,2017-01-01T20:00:00Z,26.6955,-81.8138,1.488,8.29,1111122 
SCCF RECON,ioos:station:SCCF:18:1,2017-01-01T21:00:00Z,26.6955,-81.8138,1.561,8.4,1111122 
SCCF RECON,ioos:station:SCCF:18:1,2017-01-01T22:00:00Z,26.6955,-81.8138,1.616,8.4,1111122 
SCCF RECON,ioos:station:SCCF:18:1,2017-01-01T23:00:00Z,26.6955,-81.8138,1.67,8.51,1111122 
SCCF RECON,ioos:station:SCCF:18:1,2017-01-02T00:00:00Z,26.6955,-81.8138,1.71,8.13,1111122 
SCCF RECON,ioos:station:SCCF:18:1,2017-01-02T01:00:00Z,26.6955,-81.8138,1.72,8.36,1111122 
SCCF RECON,ioos:station:SCCF:18:1,2017-01-02T02:00:00Z,26.6955,-81.8138,1.68,8.63,1111122 
SCCF RECON,ioos:station:SCCF:18:1,2017-01-02T03:00:00Z,26.6955,-81.8138,1.625,8.31,1111122 
SCCF RECON,ioos:station:SCCF:18:1,2017-01-02T04:00:00Z,26.6955,-81.8138,1.575,8.21,1111122 
SCCF RECON,ioos:station:SCCF:18:1,2017-01-02T05:00:00Z,26.6955,-81.8138,1.55,8.05,1111122 
SCCF RECON,ioos:station:SCCF:18:1,2017-01-02T06:00:00Z,26.6955,-81.8138,1.56,8.04,1111122 
SCCF RECON,ioos:station:SCCF:18:1,2017-01-02T07:00:00Z,26.6955,-81.8138,1.63,8.05,1111122 
SCCF RECON,ioos:station:SCCF:18:1,2017-01-02T08:00:00Z,26.6955,-81.8138,1.72,7.97,1111122 
SCCF RECON,ioos:station:SCCF:18:1,2017-01-02T09:00:00Z,26.6955,-81.8138,1.77,7.91,1111122 
SCCF RECON,ioos:station:SCCF:18:1,2017-01-02T10:00:00Z,26.6955,-81.8138,1.783,7.95,1111122 
SCCF RECON,ioos:station:SCCF:18:1,2017-01-02T11:00:00Z,26.6955,-81.8138,1.79,7.95,1111122 
SCCF RECON,ioos:station:SCCF:18:1,2017-01-02T12:00:00Z,26.6955,-81.8138,1.73,7.89,1111122 
SCCF RECON,ioos:station:SCCF:18:1,2017-01-02T13:00:00Z,26.6955,-81.8138,1.65,7.71,1111122 
SCCF RECON,ioos:station:SCCF:18:1,2017-01-02T14:00:00Z,26.6955,-81.8138,1.58,7.8,1111122 
SCCF RECON,ioos:station:SCCF:18:1,2017-01-02T15:00:00Z,26.6955,-81.8138,1.55,7.79,1111122 
SCCF RECON,ioos:station:SCCF:18:1,2017-01-02T16:00:00Z,26.6955,-81.8138,1.493,7.87,1111122 
SCCF RECON,ioos:station:SCCF:18:1,2017-01-02T17:00:00Z,26.6955,-81.8138,1.429,7.93,1111122 
SCCF RECON,ioos:station:SCCF:18:1,2017-01-02T18:00:00Z,26.6955,-81.8138,1.36,7.94,1111122 
SCCF RECON,ioos:station:SCCF:18:1,2017-01-02T19:00:00Z,26.6955,-81.8138,1.323,8.05,1111122 
SCCF RECON,ioos:station:SCCF:18:1,2017-01-02T20:00:00Z,26.6955,-81.8138,1.36,8.26,1111122 
SCCF RECON,ioos:station:SCCF:18:1,2017-01-02T21:00:00Z,26.6955,-81.8138,1.439,8.15,1111122 
SCCF RECON,ioos:station:SCCF:18:1,2017-01-02T22:00:00Z,26.6955,-81.8138,1.521,8.21,1111122 
SCCF RECON,ioos:station:SCCF:18:1,2017-01-02T23:00:00Z,26.6955,-81.8138,1.56,8.17,1111122 
SCCF RECON,ioos:station:SCCF:18:1,2017-01-03T00:00:00Z,26.6955,-81.8138,1.58,8.34,1111122 
SCCF RECON,ioos:station:SCCF:18:1,2017-01-03T01:00:00Z,26.6955,-81.8138,1.6,8.21,1111122 
SCCF RECON,ioos:station:SCCF:18:1,2017-01-03T02:00:00Z,26.6955,-81.8138,1.58,8.1,1111122 
SCCF RECON,ioos:station:SCCF:18:1,2017-01-03T03:00:00Z,26.6955,-81.8138,1.52,7.97,1111122 
SCCF RECON,ioos:station:SCCF:18:1,2017-01-03T04:00:00Z,26.6955,-81.8138,1.444,7.95,1111122 
SCCF RECON,ioos:station:SCCF:18:1,2017-01-03T05:00:00Z,26.6955,-81.8138,1.42,7.86,1111122 
SCCF RECON,ioos:station:SCCF:18:1,2017-01-03T06:00:00Z,26.6955,-81.8138,1.41,7.95,1111122 
SCCF RECON,ioos:station:SCCF:18:1,2017-01-03T07:00:00Z,26.6955,-81.8138,1.44,7.98,1111122 
SCCF RECON,ioos:station:SCCF:18:1,2017-01-03T08:00:00Z,26.6955,-81.8138,1.5,7.9,1111122 
SCCF RECON,ioos:station:SCCF:18:1,2017-01-03T09:00:00Z,26.6955,-81.8138,1.57,7.69,1111122 
SCCF RECON,ioos:station:SCCF:18:1,2017-01-03T10:00:00Z,26.6955,-81.8138,1.601,7.7,1111122 
SCCF RECON,ioos:station:SCCF:18:1,2017-01-03T11:00:00Z,26.6955,-81.8138,1.621,7.68,1111122 
SCCF RECON,ioos:station:SCCF:18:1,2017-01-03T12:00:00Z,26.6955,-81.8138,1.65,7.77,1111122 
SCCF RECON,ioos:station:SCCF:18:1,2017-01-03T13:00:00Z,26.6955,-81.8138,1.642,7.76,1111122 
SCCF RECON,ioos:station:SCCF:18:1,2017-01-03T14:00:00Z,26.6955,-81.8138,1.58,7.8,1111122 
SCCF RECON,ioos:station:SCCF:18:1,2017-01-03T15:00:00Z,26.6955,-81.8138,1.51,7.56,1111122 
SCCF RECON,ioos:station:SCCF:18:1,2017-01-03T16:00:00Z,26.6955,-81.8138,1.46,7.58,1111122 
SCCF RECON,ioos:station:SCCF:18:1,2017-01-03T17:00:00Z,26.6955,-81.8138,1.422,8.28,1111122 
SCCF RECON,ioos:station:SCCF:18:1,2017-01-03T18:00:00Z,26.6955,-81.8138,1.369,7.88,1111122 
SCCF RECON,ioos:station:SCCF:18:1,2017-01-03T19:00:00Z,26.6955,-81.8138,1.3,7.86,1111122 
SCCF RECON,ioos:station:SCCF:18:1,2017-01-03T20:00:00Z,26.6955,-81.8138,1.299,7.85,1111122 
SCCF RECON,ioos:station:SCCF:18:1,2017-01-03T21:00:00Z,26.6955,-81.8138,1.377,7.99,1111122 
SCCF RECON,ioos:station:SCCF:18:1,2017-01-03T22:00:00Z,26.6955,-81.8138,1.45,7.96,1111122 
SCCF RECON,ioos:station:SCCF:18:1,2017-01-03T23:00:00Z,26.6955,-81.8138,1.498,8.12,1111122 
SCCF RECON,ioos:station:SCCF:18:1,2017-01-04T00:00:00Z,26.6955,-81.8138,1.53,8.1,1111122 
SCCF RECON,ioos:station:SCCF:18:1,2017-01-04T01:00:00Z,26.6955,-81.8138,1.58,7.96,1111122 
SCCF RECON,ioos:station:SCCF:18:1,2017-01-04T02:00:00Z,26.6955,-81.8138,1.59,7.88,1111122 
SCCF RECON,ioos:station:SCCF:18:1,2017-01-04T03:00:00Z,26.6955,-81.8138,1.54,8.12,1111122 
SCCF RECON,ioos:station:SCCF:18:1,2017-01-04T04:00:00Z,26.6955,-81.8138,1.48,7.89,1111122 
SCCF RECON,ioos:station:SCCF:18:1,2017-01-04T05:00:00Z,26.6955,-81.8138,1.43,7.77,1111122 
SCCF RECON,ioos:station:SCCF:18:1,2017-01-04T06:00:00Z,26.6955,-81.8138,1.4,7.78,1111122 
SCCF RECON,ioos:station:SCCF:18:1,2017-01-04T07:00:00Z,26.6955,-81.8138,1.38,7.89,1111122 
SCCF RECON,ioos:station:SCCF:18:1,2017-01-04T08:00:00Z,26.6955,-81.8138,1.43,7.54,1111122 
SCCF RECON,ioos:station:SCCF:18:1,2017-01-04T09:00:00Z,26.6955,-81.8138,1.5,8.19,1111122 
SCCF RECON,ioos:station:SCCF:18:1,2017-01-04T10:00:00Z,26.6955,-81.8138,1.56,7.68,1111122 
SCCF RECON,ioos:station:SCCF:18:1,2017-01-04T11:00:00Z,26.6955,-81.8138,1.6,7.6,1111122 
SCCF RECON,ioos:station:SCCF:18:1,2017-01-04T12:00:00Z,26.6955,-81.8138,1.66,7.72,1111122 
SCCF RECON,ioos:station:SCCF:18:1,2017-01-04T13:00:00Z,26.6955,-81.8138,1.704,7.66,1111122 
SCCF RECON,ioos:station:SCCF:18:1,2017-01-04T14:00:00Z,26.6955,-81.8138,1.681,7.71,1111122 
SCCF RECON,ioos:station:SCCF:18:1,2017-01-04T15:00:00Z,26.6955,-81.8138,1.61,7.72,1111122 
SCCF RECON,ioos:station:SCCF:18:1,2017-01-04T16:00:00Z,26.6955,-81.8138,1.537,7.55,1111122 
SCCF RECON,ioos:station:SCCF:18:1,2017-01-04T17:00:00Z,26.6955,-81.8138,1.48,7.57,1111122 
SCCF RECON,ioos:station:SCCF:18:1,2017-01-04T18:00:00Z,26.6955,-81.8138,1.43,7.64,1111122 
SCCF RECON,ioos:station:SCCF:18:1,2017-01-04T19:00:00Z,26.6955,-81.8138,1.39,7.62,1111122 
SCCF RECON,ioos:station:SCCF:18:1,2017-01-04T20:00:00Z,26.6955,-81.8138,1.34,7.73,1111122 
SCCF RECON,ioos:station:SCCF:18:1,2017-01-04T21:00:00Z,26.6955,-81.8138,1.37,7.16,1111122 
SCCF RECON,ioos:station:SCCF:18:1,2017-01-04T22:00:00Z,26.6955,-81.8138,1.45,7.84,1111122 
SCCF RECON,ioos:station:SCCF:18:1,2017-01-04T23:00:00Z,26.6955,-81.8138,1.51,7.79,1111122 
SCCF RECON,ioos:station:SCCF:18:1,2017-01-05T00:00:00Z,26.6955,-81.8138,1.56,7.91,1111122 
SCCF RECON,ioos:station:SCCF:18:1,2017-01-05T01:00:00Z,26.6955,-81.8138,1.59,7.92,1111122 
SCCF RECON,ioos:station:SCCF:18:1,2017-01-05T02:00:00Z,26.6955,-81.8138,1.61,7.62,1111122 
SCCF RECON,ioos:station:SCCF:18:1,2017-01-05T03:00:00Z,26.6955,-81.8138,1.57,7.74,1111122 
SCCF RECON,ioos:station:SCCF:18:1,2017-01-05T04:00:00Z,26.6955,-81.8138,1.5,7.68,1111122 
SCCF RECON,ioos:station:SCCF:18:1,2017-01-05T05:00:00Z,26.6955,-81.8138,1.433,7.42,1111122 
SCCF RECON,ioos:station:SCCF:18:1,2017-01-05T06:00:00Z,26.6955,-81.8138,1.399,7.41,1111122 
SCCF RECON,ioos:station:SCCF:18:1,2017-01-05T07:00:00Z,26.6955,-81.8138,1.352,7.39,1111122 
SCCF RECON,ioos:station:SCCF:18:1,2017-01-05T08:00:00Z,26.6955,-81.8138,1.308,7.44,1111122 
SCCF RECON,ioos:station:SCCF:18:1,2017-01-05T09:00:00Z,26.6955,-81.8138,1.28,7.38,1111122 
SCCF RECON,ioos:station:SCCF:18:1,2017-01-05T10:00:00Z,26.6955,-81.8138,1.302,7.4,1111122 
SCCF RECON,ioos:station:SCCF:18:1,2017-01-05T11:00:00Z,26.6955,-81.8138,1.38,7.33,1111122 
SCCF RECON,ioos:station:SCCF:18:1,2017-01-05T12:00:00Z,26.6955,-81.8138,1.454,7.14,1111122 
SCCF RECON,ioos:station:SCCF:18:1,2017-01-05T13:00:00Z,26.6955,-81.8138,1.487,7.33,1111122 
SCCF RECON,ioos:station:SCCF:18:1,2017-01-05T14:00:00Z,26.6955,-81.8138,1.5,7.18,1111122 
SCCF RECON,ioos:station:SCCF:18:1,2017-01-05T15:00:00Z,26.6955,-81.8138,1.48,7.53,1111122 
SCCF RECON,ioos:station:SCCF:18:1,2017-01-05T16:00:00Z,26.6955,-81.8138,1.414,7.37,1111122 
SCCF RECON,ioos:station:SCCF:18:1,2017-01-05T17:00:00Z,26.6955,-81.8138,1.35,7.47,1111122 
SCCF RECON,ioos:station:SCCF:18:1,2017-01-05T18:00:00Z,26.6955,-81.8138,1.309,7.24,1111122 
SCCF RECON,ioos:station:SCCF:18:1,2017-01-05T19:00:00Z,26.6955,-81.8138,1.29,7.59,1111122 
SCCF RECON,ioos:station:SCCF:18:1,2017-01-05T20:00:00Z,26.6955,-81.8138,1.266,7.36,1111122 
SCCF RECON,ioos:station:SCCF:18:1,2017-01-05T21:00:00Z,26.6955,-81.8138,1.263,7.55,1111122 
SCCF RECON,ioos:station:SCCF:18:1,2017-01-05T22:00:00Z,26.6955,-81.8138,1.314,7.88,1111122 
SCCF RECON,ioos:station:SCCF:18:1,2017-01-05T23:00:00Z,26.6955,-81.8138,1.39,8.06,1111122 
SCCF RECON,ioos:station:SCCF:18:1,2017-01-06T00:00:00Z,26.6955,-81.8138,1.459,7.61,1111122 
SCCF RECON,ioos:station:SCCF:18:1,2017-01-06T01:00:00Z,26.6955,-81.8138,1.505,7.91,1111122 
SCCF RECON,ioos:station:SCCF:18:1,2017-01-06T02:00:00Z,26.6955,-81.8138,1.55,7.79,1111122 
SCCF RECON,ioos:station:SCCF:18:1,2017-01-06T03:00:00Z,26.6955,-81.8138,1.59,7.75,1111122 
SCCF RECON,ioos:station:SCCF:18:1,2017-01-06T04:00:00Z,26.6955,-81.8138,1.574,7.67,1111122 
SCCF RECON,ioos:station:SCCF:18:1,2017-01-06T05:00:00Z,26.6955,-81.8138,1.501,7.25,1111122 
SCCF RECON,ioos:station:SCCF:18:1,2017-01-06T06:00:00Z,26.6955,-81.8138,1.43,7.38,1111122 
SCCF RECON,ioos:station:SCCF:18:1,2017-01-06T07:00:00Z,26.6955,-81.8138,1.39,7.29,1111122 
SCCF RECON,ioos:station:SCCF:18:1,2017-01-06T08:00:00Z,26.6955,-81.8138,1.357,7.24,1111122 
SCCF RECON,ioos:station:SCCF:18:1,2017-01-06T09:00:00Z,26.6955,-81.8138,1.31,7.34,1111122 
SCCF RECON,ioos:station:SCCF:18:1,2017-01-06T10:00:00Z,26.6955,-81.8138,1.265,7.22,1111122 
SCCF RECON,ioos:station:SCCF:18:1,2017-01-06T11:00:00Z,26.6955,-81.8138,1.28,7.22,1111122 
SCCF RECON,ioos:station:SCCF:18:1,2017-01-06T12:00:00Z,26.6955,-81.8138,1.35,7.33,1111122 
SCCF RECON,ioos:station:SCCF:18:1,2017-01-06T13:00:00Z,26.6955,-81.8138,1.44,7.13,1111122 
SCCF RECON,ioos:station:SCCF:18:1,2017-01-06T14:00:00Z,26.6955,-81.8138,1.48,7.23,1111122 
SCCF RECON,ioos:station:SCCF:18:1,2017-01-06T15:00:00Z,26.6955,-81.8138,1.51,7.21,1111122 
SCCF RECON,ioos:station:SCCF:18:1,2017-01-06T16:00:00Z,26.6955,-81.8138,1.526,7.2,1111122 
SCCF RECON,ioos:station:SCCF:18:1,2017-01-06T17:00:00Z,26.6955,-81.8138,1.495,7.39,1111122 
SCCF RECON,ioos:station:SCCF:18:1,2017-01-06T18:00:00Z,26.6955,-81.8138,1.43,7.55,1111122 
SCCF RECON,ioos:station:SCCF:18:1,2017-01-06T19:00:00Z,26.6955,-81.8138,1.37,7.56,1111122 
SCCF RECON,ioos:station:SCCF:18:1,2017-01-06T20:00:00Z,26.6955,-81.8138,1.333,7.55,1111122 
SCCF RECON,ioos:station:SCCF:18:1,2017-01-06T21:00:00Z,26.6955,-81.8138,1.316,7.5,1111122 
SCCF RECON,ioos:station:SCCF:18:1,2017-01-06T22:00:00Z,26.6955,-81.8138,1.33,7.41,1111122 
SCCF RECON,ioos:station:SCCF:18:1,2017-01-06T23:00:00Z,26.6955,-81.8138,1.402,7.7,1111122 
SCCF RECON,ioos:station:SCCF:18:1,2017-01-07T00:00:00Z,26.6955,-81.8138,1.48,7.76,1111122 
SCCF RECON,ioos:station:SCCF:18:1,2017-01-07T01:00:00Z,26.6955,-81.8138,1.55,7.64,1111122 
SCCF RECON,ioos:station:SCCF:18:1,2017-01-07T02:00:00Z,26.6955,-81.8138,1.607,7.57,1111122 
SCCF RECON,ioos:station:SCCF:18:1,2017-01-07T03:00:00Z,26.6955,-81.8138,1.67,7.54,1111122 
SCCF RECON,ioos:station:SCCF:18:1,2017-01-07T04:00:00Z,26.6955,-81.8138,1.725,7.64,1111122 
SCCF RECON,ioos:station:SCCF:18:1,2017-01-07T05:00:00Z,26.6955,-81.8138,1.724,7.42,1111122 
SCCF RECON,ioos:station:SCCF:18:1,2017-01-07T06:00:00Z,26.6955,-81.8138,1.68,7.44,1111122 
SCCF RECON,ioos:station:SCCF:18:1,2017-01-07T07:00:00Z,26.6955,-81.8138,1.61,7.22,1111122 
SCCF RECON,ioos:station:SCCF:18:1,2017-01-07T08:00:00Z,26.6955,-81.8138,1.554,7.37,1111122 
SCCF RECON,ioos:station:SCCF:18:1,2017-01-07T09:00:00Z,26.6955,-81.8138,1.51,7.2,1111122 
SCCF RECON,ioos:station:SCCF:18:1,2017-01-07T10:00:00Z,26.6955,-81.8138,1.47,7.14,1111122 
SCCF RECON,ioos:station:SCCF:18:1,2017-01-07T11:00:00Z,26.6955,-81.8138,1.45,7.14,1111122 
SCCF RECON,ioos:station:SCCF:18:1,2017-01-07T12:00:00Z,26.6955,-81.8138,1.48,6.84,1111122 
SCCF RECON,ioos:station:SCCF:18:1,2017-01-07T13:00:00Z,26.6955,-81.8138,1.56,7.44,1111122 
SCCF RECON,ioos:station:SCCF:18:1,2017-01-07T14:00:00Z,26.6955,-81.8138,1.645,7.4,1111122 
SCCF RECON,ioos:station:SCCF:18:1,2017-01-07T15:00:00Z,26.6955,-81.8138,1.691,7.29,1111122 
SCCF RECON,ioos:station:SCCF:18:1,2017-01-07T16:00:00Z,26.6955,-81.8138,1.728,7.44,1111122 
SCCF RECON,ioos:station:SCCF:18:1,2017-01-07T17:00:00Z,26.6955,-81.8138,1.73,7.47,1111122 
SCCF RECON,ioos:station:SCCF:18:1,2017-01-07T18:00:00Z,26.6955,-81.8138,1.723,7.44,1111122 
SCCF RECON,ioos:station:SCCF:18:1,2017-01-07T19:00:00Z,26.6955,-81.8138,1.699,7.55,1111122 
SCCF RECON,ioos:station:SCCF:18:1,2017-01-07T20:00:00Z,26.6955,-81.8138,1.635,7.09,1111122 
SCCF RECON,ioos:station:SCCF:18:1,2017-01-07T21:00:00Z,26.6955,-81.8138,1.574,7.43,1111122 
SCCF RECON,ioos:station:SCCF:18:1,2017-01-07T22:00:00Z,26.6955,-81.8138,1.523,7.08,1111122 
SCCF RECON,ioos:station:SCCF:18:1,2017-01-07T23:00:00Z,26.6955,-81.8138,1.481,7.43,1111122 
SCCF RECON,ioos:station:SCCF:18:1,2017-01-08T00:00:00Z,26.6955,-81.8138,1.445,7.46,1111122 
SCCF RECON,ioos:station:SCCF:18:1,2017-01-08T01:00:00Z,26.6955,-81.8138,1.42,7.25,1111122 
SCCF RECON,ioos:station:SCCF:18:1,2017-01-08T02:00:00Z,26.6955,-81.8138,1.38,7.45,1111122 
SCCF RECON,ioos:station:SCCF:18:1,2017-01-08T03:00:00Z,26.6955,-81.8138,1.359,7.48,1111122 
SCCF RECON,ioos:station:SCCF:18:1,2017-01-08T04:00:00Z,26.6955,-81.8138,1.34,7.53,1111122 
SCCF RECON,ioos:station:SCCF:18:1,2017-01-08T05:00:00Z,26.6955,-81.8138,1.31,7.42,1111122 
SCCF RECON,ioos:station:SCCF:18:1,2017-01-08T06:00:00Z,26.6955,-81.8138,1.27,7.46,1111122 
SCCF RECON,ioos:station:SCCF:18:1,2017-01-08T07:00:00Z,26.6955,-81.8138,1.25,7.44,1111122 
SCCF RECON,ioos:station:SCCF:18:1,2017-01-08T08:00:00Z,26.6955,-81.8138,1.23,7.47,1111122 
SCCF RECON,ioos:station:SCCF:18:1,2017-01-08T09:00:00Z,26.6955,-81.8138,1.19,7.24,1111122 
SCCF RECON,ioos:station:SCCF:18:1,2017-01-08T10:00:00Z,26.6955,-81.8138,1.14,7.49,1111122 
SCCF RECON,ioos:station:SCCF:18:1,2017-01-08T11:00:00Z,26.6955,-81.8138,1.108,7.47,1111122 
SCCF RECON,ioos:station:SCCF:18:1,2017-01-08T12:00:00Z,26.6955,-81.8138,1.073,7.61,1111122 
SCCF RECON,ioos:station:SCCF:18:1,2017-01-08T13:00:00Z,26.6955,-81.8138,1.03,7.59,1111122 
SCCF RECON,ioos:station:SCCF:18:1,2017-01-08T14:00:00Z,26.6955,-81.8138,0.994,7.8,1111122 
SCCF RECON,ioos:station:SCCF:18:1,2017-01-08T15:00:00Z,26.6955,-81.8138,0.956,7.65,1111122 
SCCF RECON,ioos:station:SCCF:18:1,2017-01-08T16:00:00Z,26.6955,-81.8138,0.92,8.15,1111122 
SCCF RECON,ioos:station:SCCF:18:1,2017-01-08T17:00:00Z,26.6955,-81.8138,0.909,7.91,1111122 
SCCF RECON,ioos:station:SCCF:18:1,2017-01-08T18:00:00Z,26.6955,-81.8138,0.907,8.25,1111122 
SCCF RECON,ioos:station:SCCF:18:1,2017-01-08T19:00:00Z,26.6955,-81.8138,0.91,8.25,1111122 
SCCF RECON,ioos:station:SCCF:18:1,2017-01-08T20:00:00Z,26.6955,-81.8138,0.914,8.49,1111122 
SCCF RECON,ioos:station:SCCF:18:1,2017-01-08T21:00:00Z,26.6955,-81.8138,0.932,8.63,1111122 
SCCF RECON,ioos:station:SCCF:18:1,2017-01-08T22:00:00Z,26.6955,-81.8138,0.953,8.7,1111122 
SCCF RECON,ioos:station:SCCF:18:1,2017-01-08T23:00:00Z,26.6955,-81.8138,0.998,8.75,1111122 
SCCF RECON,ioos:station:SCCF:18:1,2017-01-09T00:00:00Z,26.6955,-81.8138,1.032,8.71,1111122 
SCCF RECON,ioos:station:SCCF:18:1,2017-01-09T01:00:00Z,26.6955,-81.8138,1.1,8.68,1111122 
SCCF RECON,ioos:station:SCCF:18:1,2017-01-09T02:00:00Z,26.6955,-81.8138,1.162,8.94,1111122 
SCCF RECON,ioos:station:SCCF:18:1,2017-01-09T03:00:00Z,26.6955,-81.8138,1.213,8.95,1111122 
SCCF RECON,ioos:station:SCCF:18:1,2017-01-09T04:00:00Z,26.6955,-81.8138,1.261,8.94,1111122 
SCCF RECON,ioos:station:SCCF:18:1,2017-01-09T05:00:00Z,26.6955,-81.8138,1.314,9.04,1111122 
SCCF RECON,ioos:station:SCCF:18:1,2017-01-09T06:00:00Z,26.6955,-81.8138,1.34,9.0,1111122 
SCCF RECON,ioos:station:SCCF:18:1,2017-01-09T07:00:00Z,26.6955,-81.8138,1.31,8.94,1111122 
SCCF RECON,ioos:station:SCCF:18:1,2017-01-09T08:00:00Z,26.6955,-81.8138,1.25,8.8,1111122 
SCCF RECON,ioos:station:SCCF:18:1,2017-01-09T09:00:00Z,26.6955,-81.8138,1.183,8.73,1111122 
SCCF RECON,ioos:station:SCCF:18:1,2017-01-09T10:00:00Z,26.6955,-81.8138,1.15,8.04,1111122 
SCCF RECON,ioos:station:SCCF:18:1,2017-01-09T11:00:00Z,26.6955,-81.8138,1.112,8.05,1111122 
SCCF RECON,ioos:station:SCCF:18:1,2017-01-09T12:00:00Z,26.6955,-81.8138,1.082,8.18,1111122 
SCCF RECON,ioos:station:SCCF:18:1,2017-01-09T13:00:00Z,26.6955,-81.8138,1.06,8.25,1111122 
SCCF RECON,ioos:station:SCCF:18:1,2017-01-09T14:00:00Z,26.6955,-81.8138,1.03,8.24,1111122 
SCCF RECON,ioos:station:SCCF:18:1,2017-01-09T15:00:00Z,26.6955,-81.8138,1.025,8.28,1111122 
SCCF RECON,ioos:station:SCCF:18:1,2017-01-09T16:00:00Z,26.6955,-81.8138,1.062,8.56,1111122 
SCCF RECON,ioos:station:SCCF:18:1,2017-01-09T17:00:00Z,26.6955,-81.8138,1.116,8.71,1111122 
SCCF RECON,ioos:station:SCCF:18:1,2017-01-09T18:00:00Z,26.6955,-81.8138,1.155,8.59,1111122 
SCCF RECON,ioos:station:SCCF:18:1,2017-01-09T19:00:00Z,26.6955,-81.8138,1.18,8.93,1111122 
SCCF RECON,ioos:station:SCCF:18:1,2017-01-09T20:00:00Z,26.6955,-81.8138,1.22,8.82,1111122 
SCCF RECON,ioos:station:SCCF:18:1,2017-01-09T21:00:00Z,26.6955,-81.8138,1.239,8.83,1111122 
SCCF RECON,ioos:station:SCCF:18:1,2017-01-09T22:00:00Z,26.6955,-81.8138,1.236,9.03,1111122 
SCCF RECON,ioos:station:SCCF:18:1,2017-01-09T23:00:00Z,26.6955,-81.8138,1.24,8.84,1111122 
SCCF RECON,ioos:station:SCCF:18:1,2017-01-10T00:00:00Z,26.6955,-81.8138,1.27,8.89,1111122 
SCCF RECON,ioos:station:SCCF:18:1,2017-01-10T01:00:00Z,26.6955,-81.8138,1.34,9.3,1111122 
SCCF RECON,ioos:station:SCCF:18:1,2017-01-10T02:00:00Z,26.6955,-81.8138,1.41,9.07,1111122 
SCCF RECON,ioos:station:SCCF:18:1,2017-01-10T03:00:00Z,26.6955,-81.8138,1.45,8.88,1111122 
SCCF RECON,ioos:station:SCCF:18:1,2017-01-10T04:00:00Z,26.6955,-81.8138,1.49,9.17,1111122 
SCCF RECON,ioos:station:SCCF:18:1,2017-01-10T05:00:00Z,26.6955,-81.8138,1.55,9.19,1111122 
SCCF RECON,ioos:station:SCCF:18:1,2017-01-10T06:00:00Z,26.6955,-81.8138,1.6,9.18,1111122 
SCCF RECON,ioos:station:SCCF:18:1,2017-01-10T07:00:00Z,26.6955,-81.8138,1.61,8.88,1111122 
SCCF RECON,ioos:station:SCCF:18:1,2017-01-10T08:00:00Z,26.6955,-81.8138,1.54,8.67,1111122 
SCCF RECON,ioos:station:SCCF:18:1,2017-01-10T09:00:00Z,26.6955,-81.8138,1.45,8.64,1111122 
SCCF RECON,ioos:station:SCCF:18:1,2017-01-10T10:00:00Z,26.6955,-81.8138,1.398,8.37,1111122 
SCCF RECON,ioos:station:SCCF:18:1,2017-01-10T11:00:00Z,26.6955,-81.8138,1.35,8.65,1111122 
SCCF RECON,ioos:station:SCCF:18:1,2017-01-10T12:00:00Z,26.6955,-81.8138,1.306,8.34,1111122 
SCCF RECON,ioos:station:SCCF:18:1,2017-01-10T13:00:00Z,26.6955,-81.8138,1.265,8.47,1111122 
SCCF RECON,ioos:station:SCCF:18:1,2017-01-10T14:00:00Z,26.6955,-81.8138,1.23,8.45,1111122 
SCCF RECON,ioos:station:SCCF:18:1,2017-01-10T15:00:00Z,26.6955,-81.8138,1.207,8.32,1111122 
SCCF RECON,ioos:station:SCCF:18:1,2017-01-10T16:00:00Z,26.6955,-81.8138,1.24,8.51,1111122 
SCCF RECON,ioos:station:SCCF:18:1,2017-01-10T17:00:00Z,26.6955,-81.8138,1.298,8.75,1111122 
SCCF RECON,ioos:station:SCCF:18:1,2017-01-10T18:00:00Z,26.6955,-81.8138,1.36,8.87,1111122 
SCCF RECON,ioos:station:SCCF:18:1,2017-01-10T19:00:00Z,26.6955,-81.8138,1.41,8.91,1111122 
SCCF RECON,ioos:station:SCCF:18:1,2017-01-10T20:00:00Z,26.6955,-81.8138,1.46,8.88,1111122 
SCCF RECON,ioos:station:SCCF:18:1,2017-01-10T21:00:00Z,26.6955,-81.8138,1.49,8.82,1111122 
SCCF RECON,ioos:station:SCCF:18:1,2017-01-10T22:00:00Z,26.6955,-81.8138,1.5,8.61,1111122 
SCCF RECON,ioos:station:SCCF:18:1,2017-01-10T23:00:00Z,26.6955,-81.8138,1.49,8.84,1111122 
SCCF RECON,ioos:station:SCCF:18:1,2017-01-11T00:00:00Z,26.6955,-81.8138,1.499,8.81,1111122 
SCCF RECON,ioos:station:SCCF:18:1,2017-01-11T01:00:00Z,26.6955,-81.8138,1.52,8.84,1111122 
SCCF RECON,ioos:station:SCCF:18:1,2017-01-11T02:00:00Z,26.6955,-81.8138,1.58,8.87,1111122 
SCCF RECON,ioos:station:SCCF:18:1,2017-01-11T03:00:00Z,26.6955,-81.8138,1.65,8.66,1111122 
SCCF RECON,ioos:station:SCCF:18:1,2017-01-11T04:00:00Z,26.6955,-81.8138,1.72,8.79,1111122 
SCCF RECON,ioos:station:SCCF:18:1,2017-01-11T05:00:00Z,26.6955,-81.8138,1.773,9.02,1111122 
SCCF RECON,ioos:station:SCCF:18:1,2017-01-11T06:00:00Z,26.6955,-81.8138,1.82,9.02,1111122 
SCCF RECON,ioos:station:SCCF:18:1,2017-01-11T07:00:00Z,26.6955,-81.8138,1.878,9.09,1111122 
SCCF RECON,ioos:station:SCCF:18:1,2017-01-11T08:00:00Z,26.6955,-81.8138,1.88,8.69,1111122 
SCCF RECON,ioos:station:SCCF:18:1,2017-01-11T09:00:00Z,26.6955,-81.8138,1.781,8.38,1111122 
SCCF RECON,ioos:station:SCCF:18:1,2017-01-11T10:00:00Z,26.6955,-81.8138,1.68,8.48,1111122 
SCCF RECON,ioos:station:SCCF:18:1,2017-01-11T11:00:00Z,26.6955,-81.8138,1.61,8.36,1111122 
SCCF RECON,ioos:station:SCCF:18:1,2017-01-11T12:00:00Z,26.6955,-81.8138,1.56,8.43,1111122 
SCCF RECON,ioos:station:SCCF:18:1,2017-01-11T13:00:00Z,26.6955,-81.8138,1.518,8.35,1111122 
SCCF RECON,ioos:station:SCCF:18:1,2017-01-11T14:00:00Z,26.6955,-81.8138,1.45,8.26,1111122 
SCCF RECON,ioos:station:SCCF:18:1,2017-01-11T15:00:00Z,26.6955,-81.8138,1.39,8.16,1111122 
SCCF RECON,ioos:station:SCCF:18:1,2017-01-11T16:00:00Z,26.6955,-81.8138,1.35,8.24,1111122 
SCCF RECON,ioos:station:SCCF:18:1,2017-01-11T17:00:00Z,26.6955,-81.8138,1.35,8.2,1111122 
SCCF RECON,ioos:station:SCCF:18:1,2017-01-11T18:00:00Z,26.6955,-81.8138,1.4,8.61,1111122 
SCCF RECON,ioos:station:SCCF:18:1,2017-01-11T19:00:00Z,26.6955,-81.8138,1.47,8.54,1111122 
SCCF RECON,ioos:station:SCCF:18:1,2017-01-11T20:00:00Z,26.6955,-81.8138,1.52,8.74,1111122 